This is the latest recevied weather packets stored in our database for station/object KD6VEX-1. If no packets are shown the sender has not sent any weather packets the latest 10 day(s).
| Time | Temp. | Humidity | Pressure | Rain* | Wind** | Luminosity | Snow |
|---|---|---|---|---|---|---|---|
| 1777482763 | 18.33° C | 57% | 1017.2 hPa | 0 mm | - | - | - |
| 1777482463 | 17.78° C | 58% | 1017.1 hPa | 0 mm | - | - | - |
| 1777482164 | 17.78° C | 61% | 1017.2 hPa | 0 mm | - | - | - |
| 1777481863 | 17.22° C | 61% | 1017.2 hPa | 0 mm | - | - | - |
| 1777481564 | 16.67° C | 63% | 1017.2 hPa | 0 mm | - | - | - |
| 1777480964 | 16.11° C | 65% | 1017.3 hPa | 0 mm | - | - | - |
| 1777480664 | 15.56° C | 68% | 1017.4 hPa | 0 mm | - | - | - |
| 1777480365 | 15.56° C | 68% | 1017.5 hPa | 0 mm | - | - | - |
| 1777480064 | 15° C | 70% | 1017.3 hPa | 0 mm | - | - | - |
| 1777479763 | 15° C | 73% | 1017.5 hPa | 0 mm | - | - | - |
| 1777479464 | 13.89° C | 75% | 1017.5 hPa | 0 mm | - | - | - |
| 1777479163 | 13.89° C | 74% | 1017.6 hPa | 0 mm | - | - | - |
| 1777478863 | 13.33° C | 78% | 1017.6 hPa | 0 mm | - | - | - |
| 1777478563 | 12.22° C | 82% | 1017.6 hPa | 0 mm | - | - | - |
| 1777478263 | 11.67° C | 81% | 1017.6 hPa | 0 mm | - | - | - |
| 1777477964 | 11.67° C | 83% | 1017.7 hPa | 0 mm | - | - | - |
| 1777477663 | 11.11° C | 86% | 1017.6 hPa | 0 mm | - | - | - |
| 1777477363 | 10.56° C | 88% | 1017.6 hPa | 0 mm | - | - | - |
| 1777476763 | 9.44° C | 90% | 1017.7 hPa | 0 mm | - | - | - |
| 1777476464 | 8.89° C | 92% | 1017.7 hPa | 0 mm | - | - | - |
| 1777476163 | 8.89° C | 92% | 1017.6 hPa | 0 mm | - | - | - |
| 1777475863 | 8.33° C | 92% | 1017.6 hPa | 0 mm | - | - | - |
| 1777475563 | 8.33° C | 92% | 1017.7 hPa | 0 mm | - | - | - |
| 1777475263 | 8.33° C | 92% | 1017.6 hPa | 0 mm | - | - | - |
| 1777474964 | 8.33° C | 93% | 1017.6 hPa | 0 mm | - | - | - |
* Rain latest hour (hover to see other rain measurements)
** Current wind speed in m/s (hover to see current wind gust speed)